STARLINK-11626 [DTC] (63556 NORAD) Tracking and Keplerian Element Data

This shows tracking and keplerian element data for the satellite.

Feedback or suggestion? Click here.




ElementValue
Catalog63556
NameSTARLINK-11626 [DTC]
Epoch Orbit4073
Epoch Day354.14316563
Epoch Year2025
RAAN273.6719
Inclination43
Eccentricity0.0002048
Argument of Perigee289.5275
Mean Anonmoly70.5371
Mean Motion15.70911353
Decay Rate0.00225755
L11 63556U 25075J 25354.14316563 .00225755 00000+0 17103-2 0 9991
L22 63556 43.0000 273.6719 0002048 289.5275 70.5371 15.70911353 40733



Live tracking and technical data element details for STARLINK-11626 [DTC] (NORAD 63556). STARLINK-11626 [DTC] can be tracked NOW for your location showing map with azimuth and elevation plus other details from your city location.







IsCatalogInMostPopularTable: catalog: 63556, numindb: 2
Update: records affected: 1



GetName: 63556 STARLINK-11626 [DTC]

Hit Count: updated at: Mon, 09 Feb 2026 08:52:58 GMT